New Windsor, NY

7:29 PM EST on December 03, 2016 (GMT -0500)
Stewart International

Weather History for KSWF - January, 2014

Change the Weather History Date:

Tuesday, January 21, 2014

  Actual Average Record
Temperature  
Mean Temperature 16 °F -  
Max Temperature 23 °F 30 °F 59 °F (2006)
Min Temperature 8 °F 14 °F -11 °F (1983)
Degree Days  
Heating Degree Days 50    
Moisture  
Dew Point 5 °F    
Average Humidity 68    
Maximum Humidity 79    
Minimum Humidity 58    
Precipitation  
Precipitation 0.00 in - - ()
Sea Level Pressure  
Sea Level Pressure 29.95 in    
Wind  
Wind Speed 11 mph (NE)    
Max Wind Speed 20 mph    
Max Gust Speed 29 mph    
Visibility 8 miles    
Events Snow    
Averages and records for this station are not official NWS values.
T = Trace of Precipitation, MM = Missing Value Source: NWS Daily Summary

Daily Weather History Graph

Daily Weather History Graph

Search for Another Location

Airport or City:

Trip Planner

Search our weather history database for the weather conditions in past years. The results will help you decide how hot, cold, wet, or windy it might be!

Date:

Astronomy

Jan. 21, 2014 Rise Set
Actual Time 7:17 AM EST 4:58 PM EST
Civil Twilight 6:47 AM EST 5:28 PM EST
Nautical Twilight 6:13 AM EST 6:02 PM EST
Astronomical Twilight 5:40 AM EST 6:35 PM EST
Moon 10:33 PM EST (1/21) 9:41 AM EST (1/21)
Length of Visible Light 10h 41m
Length of Day
9h 41m
Waning Gibbous, 75% of the Moon is Illuminated
Jan 21
Waning Gibbous
Jan 24
Last Quarter
Jan 30
New
Feb 6
First Quarter
Feb 14
Full

Hourly Weather History & Observations

Time (EST) Temp. Windchill Dew Point Humidity Pressure Visibility Wind Dir Wind Speed Gust Speed Precip Events Conditions
12:45 AM 23.0 °F 13.1 °F 10.4 °F 59% 29.93 in 10.0 mi NNW 9.2 mph - N/A   Overcast
1:45 AM 21.2 °F 10.9 °F 8.6 °F 58% 29.94 in 10.0 mi NNW 9.2 mph - N/A   Overcast
3:45 AM 19.4 °F 12.8 °F 6.8 °F 58% 29.94 in 10.0 mi WNW 4.6 mph - N/A   Overcast
4:45 AM 19.4 °F 6.0 °F 12.2 °F 74% 29.97 in 10.0 mi East 13.8 mph - N/A   Partly Cloudy
5:45 AM 17.6 °F 5.0 °F 10.4 °F 73% 29.97 in 10.0 mi ENE 11.5 mph - N/A   Scattered Clouds
6:45 AM 15.8 °F 4.2 °F 8.6 °F 73% 29.98 in 15.0 mi ENE 9.2 mph - N/A   Mostly Cloudy
7:45 AM 14.0 °F 0.5 °F 6.8 °F 73% 30.00 in 20.0 mi ENE 11.5 mph - N/A   Overcast
8:45 AM 14.0 °F 0.5 °F 5.0 °F 67% 29.99 in 20.0 mi ENE 11.5 mph - N/A   Overcast
9:45 AM 14.0 °F 0.5 °F 3.2 °F 62% 30.01 in 2.5 mi ENE 11.5 mph - N/A Snow Light Snow
10:50 AM 14.0 °F 0.5 °F 8.6 °F 79% 30.04 in 2.0 mi NE 11.5 mph - N/A Snow Snow
12:45 PM 14.0 °F 2.0 °F 6.8 °F 73% 29.98 in 2.0 mi ENE 9.2 mph - N/A Snow Snow
2:45 PM 14.0 °F 0.5 °F 3.2 °F 62% 29.90 in 7.0 mi NNE 11.5 mph 17.3 mph N/A   Overcast
3:45 PM 12.2 °F -1.8 °F 1.4 °F 62% 29.92 in 4.0 mi NE 11.5 mph 23.0 mph N/A Snow Light Snow
4:45 PM 10.4 °F -4.1 °F 1.4 °F 67% 29.93 in 3.0 mi NE 11.5 mph 23.0 mph N/A Snow Light Snow
6:45 PM 10.4 °F -5.4 °F 3.2 °F 73% 29.95 in 1.5 mi NNE 13.8 mph 23.0 mph N/A Snow Light Snow
7:45 PM 10.4 °F -4.1 °F 3.2 °F 73% 29.94 in 2.0 mi NE 11.5 mph 18.4 mph N/A Snow Light Snow
8:45 PM 8.6 °F -8.9 °F 1.4 °F 73% 29.95 in 3.0 mi NE 16.1 mph 27.6 mph N/A Snow Light Snow
9:45 PM 8.6 °F -8.9 °F -0.4 °F 67% 29.93 in 7.0 mi NE 16.1 mph 27.6 mph N/A   Overcast
10:45 PM 8.6 °F -10.5 °F -2.2 °F 62% 29.92 in 8.0 mi NNE 19.6 mph 28.8 mph N/A   Overcast
11:45 PM 8.6 °F -10.0 °F -2.2 °F 62% 29.89 in 10.0 mi NNE 18.4 mph 24.2 mph N/A   Mostly Cloudy